Weather reports worldwide

Advertisment
Sennybridge, United Kingdom (3507): temperature & dewpoint: 12.01.2018 13:00:00 - 18.01.2018 13:00:00 (GMT)Sennybridge, United Kingdom (3507): temperature -20cm & temperature -100cm: 12.01.2018 13:00:00 - 18.01.2018 13:00:00 (GMT)Sennybridge, United Kingdom (3507): wind speed & gusts: 12.01.2018 13:00:00 - 18.01.2018 13:00:00 (GMT)Sennybridge, United Kingdom (3507): wind direction: 12.01.2018 13:00:00 - 18.01.2018 13:00:00 (GMT)Sennybridge, United Kingdom (3507): reduced air pressure: 12.01.2018 13:00:00 - 18.01.2018 13:00:00 (GMT)Sennybridge, United Kingdom (3507): visibility: 12.01.2018 13:00:00 - 18.01.2018 13:00:00 (GMT)Sennybridge, United Kingdom (3507): precipitation: 12.01.2018 13:00:00 - 18.01.2018 13:00:00 (GMT)
Date & Time tt [°C] td [°C] tt -20cm [°C] tt -100cm [°C] ff [km/h] ff [kn] fx [km/h] fx [kn] dd ppp [hPa] vv [km] rr [mm]
18.01.2018 13:00:00 3,7 1,7 - - 11 6 - - WNW 1003,2 2,0 0,4
18.01.2018 12:00:00 4,7 3,1 - - 8 4 - - W 1002,7 50 0,0
18.01.2018 11:00:00 4,0 3,1 - - 13 7 - - W 1002,8 40 1,0
18.01.2018 10:00:00 4,1 2,8 - - 15 8 - - W 1002,4 40 0,0
18.01.2018 09:00:00 3,9 2,3 - - 9 5 - - W 1002,1 45 0,0
18.01.2018 08:00:00 3,6 2,4 - - 11 6 - - W 1001,4 50 0,6
18.01.2018 07:00:00 3,8 2,0 - - 8 4 - - WNW 1000,5 50 0,0
18.01.2018 06:00:00 3,7 1,8 - - 9 5 - - WNW 999,8 35 0,2
18.01.2018 05:00:00 4,5 1,5 - - 15 8 - - NW 998,4 17 0,0
18.01.2018 04:00:00 5,3 2,0 - - 15 8 59 32 WNW 996,3 50 0,0
18.01.2018 03:00:00 7,1 3,8 - - 15 8 65 35 WNW 994,5 25 0,0
18.01.2018 02:00:00 8,5 5,8 - - 21 11 63 34 W 993,1 17 0,0
18.01.2018 01:00:00 8,8 7,2 - - 34 18 70 38 WSW 993,1 24 1,6
18.01.2018 00:00:00 8,8 8,6 - - 35 19 65 35 WSW 993,1 11 2,4
17.01.2018 23:00:00 8,0 7,8 - - 37 20 63 34 WSW 995,0 7 2,6
17.01.2018 22:00:00 6,2 5,9 - - 39 21 59 32 SW 996,8 2,0 2,6
17.01.2018 21:00:00 4,4 4,1 - - 35 19 67 36 SW 999,9 3,1 2,8
17.01.2018 20:00:00 3,4 2,8 - - 31 17 54 29 SW 1003,5 5 1,8
17.01.2018 19:00:00 3,0 2,1 - - 22 12 - - WSW 1005,9 10 0,6
17.01.2018 18:00:00 3,4 1,9 - - 21 11 - - WSW 1007,8 22 0,0
17.01.2018 17:00:00 3,2 1,8 - - 18 10 - - WSW 1008,0 24 0,4
17.01.2018 16:00:00 3,9 0,8 - - 15 8 - - W 1008,8 30 0,0
17.01.2018 15:00:00 4,0 0,6 - - 13 7 - - W 1008,9 30 0,0
17.01.2018 14:00:00 4,5 0,4 - - 11 6 - - W 1009,2 30 0,0
17.01.2018 13:00:00 4,3 0,1 - - 13 7 - - WNW 1009,3 35 0,0
17.01.2018 12:00:00 3,9 0,4 - - 11 6 - - WNW 1009,5 35 0,0
17.01.2018 11:00:00 3,4 0,3 - - 13 7 - - W 1009,0 30 0,0
17.01.2018 10:00:00 2,8 0,5 - - 9 5 - - W 1008,6 20 0,0
17.01.2018 09:00:00 2,4 0,0 - - 9 5 - - W 1007,8 20 0,2
17.01.2018 08:00:00 2,3 -0,5 - - 9 5 - - WNW 1007,1 25 0,2
17.01.2018 07:00:00 2,6 -0,6 - - 9 5 - - WNW 1006,0 35 0,2
17.01.2018 06:00:00 2,4 -0,7 - - 13 7 - - WNW 1005,1 26 0,4
17.01.2018 05:00:00 2,2 -1,1 - - 11 6 - - WNW 1003,5 30 1,2
17.01.2018 04:00:00 2,1 -1,2 - - 11 6 - - NW 1002,2 26 0,0
17.01.2018 03:00:00 1,7 -1,4 - - 9 5 - - WNW 1000,9 12 0,0
17.01.2018 02:00:00 1,3 -1,4 - - 9 5 46 25 WNW 999,5 30 0,0
17.01.2018 01:00:00 1,2 -1,9 - - 11 6 - - WNW 998,5 13 0,0
17.01.2018 00:00:00 0,6 -1,7 - - 11 6 - - W 997,4 30 0,0
16.01.2018 23:00:00 0,3 -1,3 - - 11 6 - - WNW 997,1 45 0,0
16.01.2018 22:00:00 0,8 -1,6 - - 11 6 - - W 996,2 40 0,0
16.01.2018 21:00:00 0,5 -0,9 - - 9 5 - - WNW 995,6 40 0,0
16.01.2018 20:00:00 0,3 -0,9 - - 11 6 - - WNW 995,5 0,8 0,0
16.01.2018 19:00:00 0,5 -0,4 - - 9 5 - - W 995,2 40 0,2
16.01.2018 18:00:00 1,3 -0,1 - - 9 5 - - W 995,1 23 0,4
16.01.2018 17:00:00 1,1 -0,4 - - 9 5 - - WNW 995,1 10 0,2
16.01.2018 16:00:00 2,9 -0,2 - - 11 6 - - W 994,8 40 0,0
16.01.2018 15:00:00 3,2 0,0 - - 15 8 - - W 994,9 30 0,4
16.01.2018 14:00:00 3,6 -0,2 - - 9 5 - - W 995,6 35 0,0
16.01.2018 13:00:00 3,6 0,1 - - 11 6 - - W 996,7 30 0,2
16.01.2018 12:00:00 3,3 -0,5 - - 11 6 - - WNW 997,0 28 0,0
16.01.2018 11:00:00 3,0 -0,1 - - 11 6 - - W 997,7 30 0,2
16.01.2018 10:00:00 2,4 0,3 - - 11 6 - - W 997,4 35 0,0
16.01.2018 09:00:00 2,4 0,1 5,4 6,7 11 6 48 26 WNW 996,9 35 0,0
16.01.2018 08:00:00 2,2 0,7 - - 8 4 - - W 996,3 35 0,0
16.01.2018 07:00:00 2,8 0,4 - - 9 5 - - W 995,8 30 0,0
16.01.2018 06:00:00 3,1 -0,3 - - 9 5 - - WNW 995,2 35 0,0
16.01.2018 05:00:00 3,1 0,1 - - 11 6 - - WNW 995,1 40 0,0
16.01.2018 04:00:00 3,3 0,9 - - 11 6 46 25 WNW 994,5 40 0,0
16.01.2018 03:00:00 3,4 2,0 - - - - - - - 994,4 40 0,0
16.01.2018 02:00:00 2,9 2,1 - - 9 5 - - W 994,3 35 1,2
16.01.2018 01:00:00 4,0 2,9 - - 11 6 - - W 993,7 30 0,8
16.01.2018 00:00:00 3,9 2,8 - - 9 5 - - WNW 994,5 45 1,2
15.01.2018 23:00:00 4,3 3,5 - - 11 6 - - W 994,4 30 0,2
15.01.2018 22:00:00 4,4 3,2 - - 16 9 - - W 994,7 6 0,0
15.01.2018 21:00:00 4,4 3,2 - - 9 5 - - W 994,9 9 0,4
15.01.2018 20:00:00 4,7 3,3 - - 9 5 - - W 994,9 35 0,0
15.01.2018 19:00:00 4,4 3,8 - - 13 7 - - W 995,1 30 0,4
15.01.2018 18:00:00 4,1 3,3 - - 8 4 - - W 995,7 35 0,8
15.01.2018 17:00:00 4,7 3,8 - - 9 5 - - W 995,6 4,1 1,0
15.01.2018 16:00:00 5,3 3,5 - - 9 5 - - W 995,0 3,7 0,0
15.01.2018 15:00:00 6,2 3,8 - - 9 5 - - WNW 994,6 45 0,0
15.01.2018 14:00:00 6,6 4,3 - - 13 7 - - W 994,2 27 0,0
15.01.2018 13:00:00 7,7 5,4 - - 11 6 - - W 994,1 50 0,0
15.01.2018 12:00:00 7,7 7,0 - - 9 5 - - W 994,1 15 0,0
15.01.2018 11:00:00 7,0 6,6 - - 15 8 - - W 994,4 50 0,0
15.01.2018 10:00:00 7,3 6,8 - - 13 7 - - W 994,6 17 3,8
15.01.2018 09:00:00 8,2 8,0 4,9 6,9 22 12 50 27 WSW 995,0 6 3,2
15.01.2018 08:00:00 8,1 8,0 - - 28 15 - - SW 996,0 7 3,0
15.01.2018 07:00:00 8,1 8,0 - - 28 15 - - WSW 997,1 10 1,2
15.01.2018 06:00:00 8,3 8,2 - - 28 15 48 26 SW 998,0 4,3 0,8
15.01.2018 05:00:00 8,0 7,8 - - 28 15 57 31 SW 999,0 5 2,6
15.01.2018 04:00:00 7,4 7,0 - - 42 23 65 35 SW 1000,4 2,2 1,2
15.01.2018 03:00:00 7,0 6,5 - - 44 24 67 36 SW 1001,8 5 2,0
15.01.2018 02:00:00 6,4 6,1 - - 37 20 55 30 SW 1003,8 4,7 -
15.01.2018 01:00:00 5,6 5,0 - - 41 22 57 31 SW 1006,2 4,4 1,0
15.01.2018 00:00:00 5,3 4,5 - - 39 21 61 33 SW 1007,9 30 1,4
14.01.2018 23:00:00 5,4 4,8 - - 37 20 55 30 SW 1009,4 2,4 0,2
14.01.2018 22:00:00 5,2 4,3 - - 37 20 54 29 SSW 1010,8 17 0,2
14.01.2018 21:00:00 5,0 3,8 - - 29 16 48 26 SW 1012,1 14 0,0
14.01.2018 20:00:00 4,6 3,2 - - 26 14 - - SSW 1013,4 13 0,0
14.01.2018 19:00:00 4,1 2,6 - - 21 11 - - SSW 1014,6 11 0,0
14.01.2018 18:00:00 3,1 1,7 - - 16 9 - - SSW 1014,6 12 0,0
14.01.2018 17:00:00 2,9 1,6 - - 15 8 - - S 1015,1 9 0,0
14.01.2018 16:00:00 3,0 1,4 - - 16 9 - - S 1015,5 10 0,0
14.01.2018 15:00:00 3,5 1,6 - - 16 9 - - S 1016,1 12 0,0
14.01.2018 14:00:00 3,6 1,4 - - 15 8 - - S 1016,8 16 0,0
14.01.2018 13:00:00 3,6 1,3 - - 18 10 - - S 1017,5 16 0,0
14.01.2018 12:00:00 4,2 1,0 - - 13 7 - - S 1018,6 19 0,0
14.01.2018 11:00:00 3,7 1,4 - - 9 5 - - SSE 1018,7 14 0,0
14.01.2018 10:00:00 2,1 0,6 - - 13 7 - - SE 1018,9 11 0,0
14.01.2018 09:00:00 0,8 0,0 4,7 6,9 11 6 - - SE 1019,5 14 0,0
14.01.2018 08:00:00 0,8 -0,4 - - 5 3 - - SE 1019,0 17 0,0
14.01.2018 07:00:00 1,9 0,4 - - 13 7 - - SE 1018,9 14 0,0
14.01.2018 06:00:00 2,3 1,3 - - 15 8 - - ESE 1018,6 8 0,0
14.01.2018 05:00:00 2,1 1,5 - - 16 9 - - SE 1018,6 6 0,0
14.01.2018 04:00:00 2,1 1,5 - - 18 10 - - SE 1018,6 5 0,0
14.01.2018 03:00:00 2,6 1,8 - - 21 11 - - SE 1018,2 6 0,0
14.01.2018 02:00:00 3,4 2,7 - - 11 6 - - SE 1018,2 5 -
14.01.2018 01:00:00 3,7 2,9 - - 15 8 - - ESE 1018,0 5 0,0
14.01.2018 00:00:00 3,9 3,1 - - 11 6 - - SE 1018,1 5 0,0
13.01.2018 23:00:00 3,9 3,1 - - 15 8 - - SSE 1017,8 5 0,0
13.01.2018 22:00:00 4,1 3,3 - - 11 6 - - SSE 1017,6 7 0,0
13.01.2018 21:00:00 4,2 3,5 - - 13 7 - - SSE 1017,2 7 0,0
13.01.2018 20:00:00 4,4 3,7 - - 15 8 - - SSE 1017,0 6 0,6
13.01.2018 19:00:00 4,5 3,5 - - 11 6 - - SSE 1016,7 10 0,2
13.01.2018 18:00:00 4,7 3,6 - - 13 7 - - S 1016,3 10 0,4
13.01.2018 17:00:00 5,0 3,5 - - 18 10 - - S 1015,9 10 0,2
13.01.2018 16:00:00 5,1 3,5 - - 21 11 - - S 1015,2 17 0,0
13.01.2018 15:00:00 5,1 3,4 - - 24 13 - - S 1015,0 20 0,0
13.01.2018 14:00:00 4,8 3,4 - - 24 13 - - S 1015,1 19 0,0
13.01.2018 13:00:00 4,8 3,2 - - 22 12 - - S 1015,3 20 0,0
13.01.2018 12:00:00 4,4 3,3 - - 22 12 - - SSE 1015,8 16 0,0
13.01.2018 11:00:00 4,4 3,3 - - 24 13 - - S 1016,2 14 0,0
13.01.2018 10:00:00 4,0 3,0 - - 29 16 46 25 SSE 1015,8 15 0,2
13.01.2018 09:00:00 3,9 2,4 4,5 7,0 26 14 50 27 SSE 1015,8 18 0,0
13.01.2018 08:00:00 3,7 2,2 - - 28 15 - - SSE 1015,3 17 0,0
13.01.2018 07:00:00 3,9 2,1 - - 21 11 - - SSE 1015,9 18 0,0
13.01.2018 06:00:00 4,0 2,1 - - 21 11 48 26 S 1016,0 19 0,0
13.01.2018 05:00:00 4,1 2,1 - - 35 19 54 29 SSE 1015,9 17 0,0
13.01.2018 04:00:00 3,9 1,7 - - 31 17 52 28 S 1016,5 16 0,0
13.01.2018 03:00:00 4,3 2,0 - - 31 17 52 28 S 1017,1 15 0,0
13.01.2018 02:00:00 4,7 2,5 - - 21 11 - - S 1017,7 17 0,0
13.01.2018 01:00:00 4,5 2,4 - - 28 15 48 26 S 1018,3 22 0,0
13.01.2018 00:00:00 4,7 2,7 - - 22 12 - - S 1019,0 21 0,0
12.01.2018 23:00:00 5,1 3,6 - - 24 13 - - S 1019,5 13 0,0
12.01.2018 22:00:00 4,6 3,4 - - 15 8 - - SSE 1019,8 21 0,0
12.01.2018 21:00:00 1,7 0,8 - - 4 2 - - NNW 1021,0 3,8 0,0
12.01.2018 20:00:00 3,7 2,8 - - 18 10 - - SE 1021,0 9 0,0
12.01.2018 19:00:00 2,8 2,2 - - 9 5 - - SE 1021,8 9 0,0
12.01.2018 18:00:00 0,2 0,1 - - 4 2 - - NNE 1022,5 12 0,0
12.01.2018 17:00:00 -0,6 -1,1 - - 2 1 - - N 1022,9 7 0,0
12.01.2018 16:00:00 0,3 0,1 - - 5 3 - - SE 1022,9 20 0,0
12.01.2018 15:00:00 2,5 2,5 - - 11 6 - - SSE 1023,0 26 0,0
12.01.2018 14:00:00 -1,5 -1,7 - - 5 3 - - NNW 1024,2 0,2 0,0
12.01.2018 13:00:00 -1,7 -1,8 - - 4 2 - - N 1025,0 0,5 0,0

tt = temperature
td = dewpoint
tt -20cm = temperature -20cm
tt -100cm = temperature -100cm
ff = wind speed
fx = gusts
dd = wind direction
ppp = reduced air pressure
vv = visibility
rr = precipitation

Next stations